Location: LDNL
(36.4545°S, 141.6685°E)
Time: 13:17:01
(UTC+10:00)

Courier 1B - Visible Passes

Search period start: 17 June 2024 00:00
Search period end: 27 June 2024 00:00
Orbit: 962 x 1208 km, 28.3° (Epoch: 16 June)

Date Brightness Start Highest point End Pass type
(mag) Time Alt. Az. Time Alt. Az. Time Alt. Az.
17 Jun 8.9 18:37:43 10° WNW 18:43:27 33° NNW 18:49:14 10° NE visible
17 Jun 9.6 20:32:52 10° WNW 20:36:42 16° NNW 20:37:20 16° NNW visible
18 Jun 8.8 17:43:52 10° WNW 17:49:49 37° N 17:55:43 10° NE visible
18 Jun 9.5 19:38:29 10° WNW 19:43:06 21° NNW 19:47:24 11° NNE visible
19 Jun 9.3 18:44:20 10° WNW 18:49:30 25° NNW 18:54:40 10° NNE visible
20 Jun 9.3 17:50:18 10° WNW 17:55:54 30° NNW 18:01:25 10° NE visible
20 Jun 9.9 19:46:26 10° NW 19:49:02 13° NNW 19:51:39 10° N visible
21 Jun 9.8 18:51:30 10° WNW 18:55:29 17° NNW 18:59:26 10° NNE visible
22 Jun 9.8 17:57:04 10° WNW 18:01:54 22° NNW 18:06:39 10° NNE visible
24 Jun 10.1 18:04:44 10° NW 18:07:48 14° NNW 18:10:51 10° N visible
